Location: Paderno d�Adda
(45.6667°N, 9.4333°E)
Time: 13:56:37
(UTC+00:00)

NOSS 3-2 (C) - Pass Details

Date: 19 September 2020
Orbit: 795 x 1418 km, 63.4° (Epoch: 25 October)

Event Time Altitude Azimuth Distance (km) Brightness Sun altitude
Rises 19:50:17 0° 320° (NW) 3,969 7.8 -25.0°
Reaches altitude 10° 19:52:49 10° 320° (NW) 3,090 7.0 -25.4°
Maximum altitude 20:00:24 83° 234° (SW) 1,306 4.0 -26.5°
Enters shadow 20:03:04 49° 153° (SSE) 1,670 4.3 -26.9°
